STARLINK-4125 (53244 NORAD) Tracking and Keplerian Element Data

This shows tracking and keplerian element data for the satellite.

Feedback or suggestion? Click here.




ElementValue
Catalog53244
NameSTARLINK-4125
Epoch Orbit130
Epoch Day269.91667824
Epoch Year2022
RAAN99.4615
Inclination53.2144
Eccentricity0.0001884
Argument of Perigee51.5922
Mean Anonmoly180.167
Mean Motion15.08824592
Decay Rate0.00036457
L11 53244U 22086C 22269.91667824 .00036457 00000+0 22979-2 0 9995
L22 53244 53.2144 99.4615 0001884 51.5922 180.1670 15.08824592 1309

Live tracking and technical data element details for STARLINK-4125 (NORAD 53244). STARLINK-4125 can be tracked NOW for your location showing map with azimuth and elevation plus other details from your city location.

Track the satellite on the map from your city or location and see movement details for azimuth, elevation, latitude, longitude, range, height, and movement on the map or in text.







IsCatalogInMostPopularTable: catalog: 53244, numindb: 3
Update: records affected: 1



GetName: 53244 STARLINK-4125

Hit Count: updated at: Wed, 05 Oct 2022 08:31:50 GMT